GW0360 Weather Reports


Display with metric or nautical units.
time (UTC)temp
F
wind
direction
speed
MPH
gust
MPH
rain 1hr
in
rain 24hr
in
rain mn
in
humidity
%
barometer
mb
20260902204610 99 88 6.0 17.0 0.00 0.00 0.00 38 1012.8
20260902204043 99 272 2.0 7.0 0.00 0.00 0.00 37 1012.8
20260902203543 100 212 1.0 12.0 0.00 0.00 0.00 39 1012.7
20260902203056 100 137 1.0 12.0 0.00 0.00 0.00 37 1012.9
20260902202541 100 171 2.0 10.0 0.00 0.00 0.00 37 1013.0
20260902202041 100 170 4.0 13.0 0.00 0.00 0.00 36 1012.9
20260902201632 100 155 5.0 13.0 0.00 0.00 0.00 38 1013.0
20260902201041 100 261 5.0 15.0 0.00 0.00 0.00 38 1013.2
20260902200540 100 219 4.0 15.0 0.00 0.00 0.00 37 1013.1
20260902200058 99 226 4.0 11.0 0.00 0.00 0.00 38 1013.3
20260902195540 99 140 2.0 8.0 0.00 0.00 0.00 40 1013.3
20260902195043 100 180 1.0 8.0 0.00 0.00 0.00 40 1013.4
20260902194601 99 203 2.0 12.0 0.00 0.00 0.00 41 1013.3
20260902194045 100 209 4.0 12.0 0.00 0.00 0.00 39 1013.5
20260902193544 100 271 3.0 16.0 0.00 0.00 0.00 40 1013.6
20260902193104 99 259 6.0 16.0 0.00 0.00 0.00 39 1013.5
20260902192540 100 218 5.0 15.0 0.00 0.00 0.00 41 1013.7
20260902192041 100 150 4.0 11.0 0.00 0.00 0.00 39 1013.7
20260902191600 100 197 4.0 11.0 0.00 0.00 0.00 41 1013.8
20260902191044 99 163 5.0 11.0 0.00 0.00 0.00 41 1013.9
20260902190543 99 257 2.0 11.0 0.00 0.00 0.00 42 1013.9
20260902190100 99 211 4.0 10.0 0.00 0.00 0.00 41 1014.1
20260902185540 99 191 2.0 11.0 0.00 0.00 0.00 42 1014.0
20260902185041 99 238 4.0 12.0 0.00 0.00 0.00 42 1014.1
20260902184604 100 290 4.0 12.0 0.00 0.00 0.00 42 1014.2
20260902184043 99 128 3.0 11.0 0.00 0.00 0.00 43 1014.2
20260902183541 99 210 4.0 11.0 0.00 0.00 0.00 44 1014.4
20260902183102 99 217 2.0 11.0 0.00 0.00 0.00 44 1014.5
20260902182540 98 0 4.0 11.0 0.00 0.00 0.00 45 1014.6
20260902182041 98 235 1.0 10.0 0.00 0.00 0.00 46 1014.6
20260902181604 98 138 3.0 10.0 0.00 0.00 0.00 45 1014.6
20260902181040 97 204 3.0 10.0 0.00 0.00 0.00 46 1014.6
20260902180540 98 189 2.0 10.0 0.00 0.00 0.00 47 1014.7
20260902180113 97 140 3.0 10.0 0.00 0.00 0.00 46 1014.9
20260902175541 97 225 2.0 11.0 0.00 0.00 0.00 47 1014.9
20260902175040 97 200 3.0 11.0 0.00 0.00 0.00 48 1014.9
20260902174602 96 272 3.0 11.0 0.00 0.00 0.00 47 1014.9
20260902174040 96 186 1.0 10.0 0.00 0.00 0.00 48 1015.0
20260902173543 97 194 3.0 12.0 0.00 0.00 0.00 47 1015.0
20260902173056 96 152 3.0 12.0 0.00 0.00 0.00 48 1015.2
20260902172540 97 247 3.0 11.0 0.00 0.00 0.00 46 1015.2
20260902172044 96 242 5.0 12.0 0.00 0.00 0.00 46 1015.3
20260902171605 96 198 3.0 15.0 0.00 0.00 0.00 49 1015.3
20260902171040 96 225 4.0 15.0 0.00 0.00 0.00 48 1015.3
20260902170543 95 117 5.0 12.0 0.00 0.00 0.00 47 1015.4
20260902170106 96 164 3.0 12.0 0.00 0.00 0.00 48 1015.3
20260902165543 95 236 5.0 11.0 0.00 0.00 0.00 47 1015.4
20260902165040 95 219 4.0 9.0 0.00 0.00 0.00 48 1015.4
20260902164608 95 283 3.0 10.0 0.00 0.00 0.00 48 1015.3
20260902164040 94 0 2.0 14.0 0.00 0.00 0.00 49 1015.5
20260902163541 94 221 4.0 14.0 0.00 0.00 0.00 49 1015.6
20260902163103 94 188 5.0 12.0 0.00 0.00 0.00 49 1015.4
20260902162541 94 261 2.0 11.0 0.00 0.00 0.00 50 1015.6
20260902162040 93 199 3.0 11.0 0.00 0.00 0.00 49 1015.6
20260902161559 92 210 3.0 11.0 0.00 0.00 0.00 51 1015.5
20260902161040 92 216 5.0 12.0 0.00 0.00 0.00 51 1015.4
20260902160543 92 258 4.0 13.0 0.00 0.00 0.00 51 1015.6
20260902160054 92 216 5.0 13.0 0.00 0.00 0.00 51 1015.5
20260902155543 91 271 5.0 13.0 0.00 0.00 0.00 51 1015.6
20260902155041 91 223 3.0 14.0 0.00 0.00 0.00 53 1015.6
20260902154605 91 144 3.0 14.0 0.00 0.00 0.00 54 1015.6
20260902154041 91 224 2.0 12.0 0.00 0.00 0.00 54 1015.5
20260902153541 90 219 3.0 12.0 0.00 0.00 0.00 54 1015.5
20260902153057 90 244 3.0 10.0 0.00 0.00 0.00 54 1015.4
20260902152540 89 224 3.0 14.0 0.00 0.00 0.00 55 1015.4
20260902152040 89 217 4.0 14.0 0.00 0.00 0.00 56 1015.4
20260902151559 88 233 4.0 13.0 0.00 0.00 0.00 57 1015.3
20260902151040 88 242 4.0 13.0 0.00 0.00 0.00 56 1015.3
20260902150540 88 232 3.0 7.0 0.00 0.00 0.00 57 1015.2
20260902150103 87 212 2.0 11.0 0.00 0.00 0.00 58 1015.3
20260902145542 87 245 3.0 11.0 0.00 0.00 0.00 58 1015.4
20260902145041 86 188 3.0 10.0 0.00 0.00 0.00 58 1015.3
20260902144604 86 217 3.0 10.0 0.00 0.00 0.00 59 1015.4
20260902144040 85 235 4.0 10.0 0.00 0.00 0.00 59 1015.4
20260902143541 85 0 3.0 12.0 0.00 0.00 0.00 61 1015.3
20260902143103 84 200 3.0 13.0 0.00 0.00 0.00 61 1015.4
20260902142540 84 198 5.0 13.0 0.00 0.00 0.00 61 1015.5
20260902142041 84 165 4.0 11.0 0.00 0.00 0.00 61 1015.5
20260902141557 83 230 2.0 10.0 0.00 0.00 0.00 62 1015.6
20260902141040 83 210 3.0 10.0 0.00 0.00 0.00 62 1015.6
20260902140540 83 134 3.0 10.0 0.00 0.00 0.00 62 1015.5
20260902140109 83 207 4.0 10.0 0.00 0.00 0.00 62 1015.5
20260902135542 82 223 3.0 8.0 0.00 0.00 0.00 63 1015.7
20260902135041 82 243 2.0 8.0 0.00 0.00 0.00 64 1015.6
20260902134601 81 214 3.0 8.0 0.00 0.00 0.00 64 1015.5
20260902134040 81 0 0.0 6.0 0.00 0.00 0.00 66 1015.6
20260902133540 80 0 2.0 6.0 0.00 0.00 0.00 66 1015.6
20260902133105 80 0 1.0 5.0 0.00 0.00 0.00 67 1015.5
20260902132541 80 209 1.0 5.0 0.00 0.00 0.00 67 1015.6
20260902132130 79 204 1.0 5.0 0.00 0.00 0.00 67 1015.6
20260902131604 79 167 2.0 7.0 0.00 0.00 0.00 67 1015.5
20260902131042 79 216 1.0 7.0 0.00 0.00 0.00 68 1015.6
20260902130540 78 203 1.0 6.0 0.00 0.00 0.00 68 1015.6
20260902130106 78 158 1.0 6.0 0.00 0.00 0.00 68 1015.4
20260902125540 77 192 0.0 5.0 0.00 0.00 0.00 70 1015.6
20260902125041 77 0 0.0 5.0 0.00 0.00 0.00 70 1015.4
20260902124600 77 238 0.0 5.0 0.00 0.00 0.00 70 1015.4
20260902124040 77 0 0.0 4.0 0.00 0.00 0.00 70 1015.4
20260902123540 76 220 0.0 7.0 0.00 0.00 0.00 70 1015.3
20260902123058 76 200 0.0 7.0 0.00 0.00 0.00 71 1015.4
20260902122540 76 243 0.0 6.0 0.00 0.00 0.00 70 1015.4
20260902122109 76 0 1.0 6.0 0.00 0.00 0.00 70 1015.3
20260902121611 76 209 0.0 4.0 0.00 0.00 0.00 70 1015.3
20260902121043 76 241 0.0 4.0 0.00 0.00 0.00 69 1015.1
20260902120545 76 215 0.0 3.0 0.00 0.00 0.00 69 1015.1
20260902120104 76 0 1.0 7.0 0.00 0.00 0.00 69 1015.1
20260902115540 76 0 0.0 7.0 0.00 0.00 0.00 69 1015.1
20260902115041 76 169 0.0 4.0 0.00 0.00 0.00 69 1015.0
20260902114559 76 172 0.0 5.0 0.00 0.00 0.00 69 1014.9
20260902114041 77 223 1.0 5.0 0.00 0.00 0.00 69 1014.9
20260902113618 77 212 0.0 4.0 0.00 0.00 0.00 68 1014.9
20260902113105 77 0 0.0 7.0 0.00 0.00 0.00 68 1014.9
20260902112540 77 0 1.0 7.0 0.00 0.00 0.00 68 1014.8
20260902112044 77 212 1.0 8.0 0.00 0.00 0.00 68 1014.9
20260902111557 77 193 0.0 8.0 0.00 0.00 0.00 68 1014.8
20260902111044 77 219 1.0 7.0 0.00 0.00 0.00 67 1014.7
20260902110555 77 0 1.0 8.0 0.00 0.00 0.00 67 1014.8
20260902110055 77 190 2.0 8.0 0.00 0.00 0.00 67 1014.8
20260902105540 78 217 1.0 5.0 0.00 0.00 0.00 66 1014.8
20260902105043 78 229 0.0 5.0 0.00 0.00 0.00 66 1014.7
20260902104612 78 0 0.0 7.0 0.00 0.00 0.00 65 1014.7
20260902104042 78 227 2.0 8.0 0.00 0.00 0.00 65 1014.7
20260902103540 79 170 1.0 8.0 0.00 0.00 0.00 64 1014.7
20260902103104 79 197 3.0 8.0 0.00 0.00 0.00 64 1014.6
20260902102544 79 261 3.0 6.0 0.00 0.00 0.00 64 1014.6
20260902102040 79 175 3.0 6.0 0.00 0.00 0.00 63 1014.6
20260902101556 79 175 2.0 6.0 0.00 0.00 0.00 63 1014.5
20260902101047 80 152 2.0 10.0 0.00 0.00 0.00 62 1014.6
20260902100543 80 193 3.0 10.0 0.00 0.00 0.00 62 1014.4
20260902100054 80 0 2.0 7.0 0.00 0.00 0.00 62 1014.5
20260902095543 80 221 3.0 7.0 0.00 0.00 0.00 62 1014.4
20260902095045 80 199 2.0 7.0 0.00 0.00 0.00 62 1014.4
20260902094602 80 252 3.0 7.0 0.00 0.00 0.00 62 1014.5
20260902094041 80 234 2.0 7.0 0.00 0.00 0.00 62 1014.5
20260902093541 80 216 2.0 6.0 0.00 0.00 0.00 62 1014.4
20260902093059 80 232 2.0 6.0 0.00 0.00 0.00 62 1014.4
20260902092545 80 219 2.0 7.0 0.00 0.00 0.00 61 1014.4
20260902092047 80 238 2.0 7.0 0.00 0.00 0.00 61 1014.3
20260902091612 80 205 2.0 9.0 0.00 0.00 0.00 61 1014.2
20260902091044 80 204 3.0 9.0 0.00 0.00 0.00 61 1014.2
20260902090547 80 229 3.0 9.0 0.00 0.00 0.00 61 1014.2
20260902090107 80 176 3.0 7.0 0.00 0.00 0.00 61 1014.2
20260902085544 80 207 2.0 7.0 0.00 0.00 0.00 61 1014.2
20260902085044 80 186 2.0 7.0 0.00 0.00 0.00 61 1014.2
20260902084607 80 255 2.0 8.0 0.00 0.00 0.00 61 1014.1
20260902084045 80 238 3.0 9.0 0.00 0.00 0.00 61 1014.2
20260902083546 80 244 3.0 9.0 0.00 0.00 0.00 61 1014.1
20260902083114 80 236 3.0 7.0 0.00 0.00 0.00 61 1014.1
20260902082541 80 209 3.0 7.0 0.00 0.00 0.00 61 1014.1
20260902082044 80 233 2.0 8.0 0.00 0.00 0.00 61 1014.0
20260902081601 80 242 3.0 8.0 0.00 0.00 0.00 61 1014.0
20260902081044 80 211 2.0 7.0 0.00 0.00 0.00 61 1014.1
20260902080544 80 242 2.0 9.0 0.00 0.00 0.00 61 1014.0
20260902075549 80 211 3.0 9.0 0.00 0.00 0.00 61 1014.0
20260902075044 80 167 2.0 7.0 0.00 0.00 0.00 61 1014.0
20260902074619 80 227 3.0 6.0 0.00 0.00 0.00 61 1013.9
20260902074046 80 246 2.0 6.0 0.00 0.00 0.00 61 1013.9
20260902073544 80 0 2.0 6.0 0.00 0.00 0.00 61 1014.0
20260902073059 80 215 2.0 5.0 0.00 0.00 0.00 61 1014.0
20260902072547 80 229 2.0 6.0 0.00 0.00 0.00 61 1014.0
20260902072044 80 229 1.0 6.0 0.00 0.00 0.00 61 1014.0
20260902071558 80 219 1.0 7.0 0.00 0.00 0.00 61 1014.0
20260902071044 81 157 2.0 9.0 0.00 0.00 0.00 60 1014.0
20260902070544 81 213 2.0 9.0 0.00 0.00 0.00 60 1014.0
20260902070114 81 218 2.0 9.0 0.00 0.00 0.00 60 1014.0
20260902065544 81 214 3.0 8.0 0.00 0.00 0.00 60 1014.0
20260902065045 81 228 3.0 8.0 0.00 0.00 0.00 60 1014.0
20260902064604 81 252 3.0 8.0 0.00 0.00 0.00 60 1014.0
20260902064047 81 235 2.0 6.0 0.00 0.00 0.00 60 1014.1
20260902063544 81 258 1.0 4.0 0.00 0.00 0.00 60 1014.1
20260902063101 81 248 1.0 4.0 0.00 0.00 0.00 61 1014.1
20260902062545 81 0 1.0 5.0 0.00 0.00 0.00 60 1014.2
20260902062044 81 240 1.0 5.0 0.00 0.00 0.00 60 1014.1
20260902061600 81 205 0.0 6.0 0.00 0.00 0.00 60 1014.1
20260902061044 81 184 0.0 6.0 0.00 0.00 0.00 60 1014.1
20260902060546 81 213 2.0 6.0 0.00 0.00 0.00 60 1014.2
20260902060107 81 219 2.0 5.0 0.00 0.00 0.00 60 1014.1
20260902055544 81 216 0.0 6.0 0.00 0.00 0.00 60 1014.1
20260902055044 82 227 1.0 6.0 0.00 0.00 0.00 59 1014.1
20260902054609 81 227 2.0 6.0 0.00 0.00 0.00 60 1014.1
20260902054044 81 244 2.0 8.0 0.00 0.00 0.00 59 1014.2
20260902053544 81 168 2.0 8.0 0.00 0.00 0.00 59 1014.1
20260902053113 82 213 1.0 5.0 0.00 0.00 0.00 59 1014.1
20260902052546 82 198 1.0 7.0 0.00 0.00 0.00 58 1014.1
20260902052045 82 180 1.0 7.0 0.00 0.00 0.00 58 1014.2
20260902051619 82 222 0.0 5.0 0.00 0.00 0.00 58 1014.2
20260902051042 82 219 1.0 8.0 0.00 0.00 0.00 58 1014.2
20260902050546 82 0 2.0 8.0 0.00 0.00 0.00 57 1014.2
20260902050110 83 164 2.0 7.0 0.00 0.00 0.00 57 1014.2
20260902045543 83 209 1.0 9.0 0.00 0.00 0.00 57 1014.1
20260902045047 83 175 1.0 11.0 0.00 0.00 0.00 56 1014.1
20260902044605 83 226 2.0 11.0 0.00 0.00 0.00 56 1014.0
20260902044045 83 234 2.0 11.0 0.00 0.00 0.00 56 1013.9
20260902043544 84 214 3.0 11.0 0.00 0.00 0.00 55 1014.0
20260902043119 84 206 2.0 9.0 0.00 0.00 0.00 55 1014.0
20260902042547 84 218 2.0 8.0 0.00 0.00 0.00 55 1014.0
20260902042044 84 181 2.0 6.0 0.00 0.00 0.00 55 1014.0
20260902041559 84 157 1.0 7.0 0.00 0.00 0.00 55 1014.0
20260902041040 84 230 2.0 7.0 0.00 0.00 0.00 55 1014.1
20260902040540 84 224 2.0 7.0 0.00 0.00 0.00 55 1014.2
20260902040056 84 174 2.0 7.0 0.00 0.00 0.00 55 1014.2
20260902035539 84 192 3.0 7.0 0.00 0.00 0.00 55 1014.2
20260902035039 84 214 3.0 7.0 0.00 0.00 0.00 55 1014.1
20260902034601 83 227 2.0 9.0 0.00 0.00 0.00 55 1014.1
20260902034044 84 231 3.0 9.0 0.00 0.00 0.00 55 1014.0
20260902033540 84 265 2.0 6.0 0.00 0.00 0.00 55 1014.0
20260902033057 84 212 2.0 6.0 0.00 0.00 0.00 55 1014.1
20260902032541 84 202 2.0 6.0 0.00 0.00 0.00 55 1014.0
20260902032045 84 161 1.0 4.0 0.00 0.00 0.00 55 1014.0
20260902031604 84 215 1.0 4.0 0.00 0.00 0.00 56 1014.0
20260902031043 84 227 0.0 4.0 0.00 0.00 0.00 55 1013.9
20260902030546 84 0 1.0 4.0 0.00 0.00 0.00 55 1013.8
20260902030100 84 0 1.0 4.0 0.00 0.00 0.00 55 1013.8
20260902025544 84 183 0.0 4.0 0.00 0.00 0.00 55 1013.7
20260902025046 85 206 1.0 4.0 0.00 0.00 0.00 54 1013.7
20260902024600 85 0 0.0 4.0 0.00 0.00 0.00 54 1013.6
20260902024044 85 244 0.0 4.0 0.00 0.00 0.00 53 1013.6
20260902023544 85 211 0.0 4.0 0.00 0.00 0.00 53 1013.5
20260902023115 85 0 1.0 7.0 0.00 0.00 0.00 53 1013.5
20260902022545 86 196 2.0 7.0 0.00 0.00 0.00 52 1013.5
20260902022044 86 186 0.0 4.0 0.00 0.00 0.00 53 1013.4
20260902021557 86 218 1.0 4.0 0.00 0.00 0.00 53 1013.4
20260902021046 85 182 0.0 5.0 0.00 0.00 0.00 53 1013.4
20260902020544 86 0 0.0 5.0 0.00 0.00 0.00 53 1013.4
20260902015545 86 0 0.0 5.0 0.00 0.00 0.00 53 1013.3
20260902015044 86 0 0.0 6.0 0.00 0.00 0.00 53 1013.4
20260902014557 86 213 0.0 6.0 0.00 0.00 0.00 52 1013.4
20260902014044 86 0 0.0 3.0 0.00 0.00 0.00 52 1013.3
20260902013544 86 0 0.0 3.0 0.00 0.00 0.00 52 1013.1
20260902013059 86 237 0.0 3.0 0.00 0.00 0.00 53 1013.2
20260902012544 86 0 0.0 3.0 0.00 0.00 0.00 53 1013.1
20260902012045 86 0 0.0 2.0 0.00 0.00 0.00 53 1013.1
20260902011634 87 0 0.0 2.0 0.00 0.00 0.00 53 1013.1
20260902011045 87 0 0.0 1.0 0.00 0.00 0.00 53 1013.1
20260902010544 87 0 0.0 1.0 0.00 0.00 0.00 52 1013.1
20260902010058 88 0 0.0 1.0 0.00 0.00 0.00 51 1013.0
20260902005544 88 0 0.0 1.0 0.00 0.00 0.00 50 1013.0
20260902005045 89 0 0.0 1.0 0.00 0.00 0.00 49 1013.1
20260902004601 89 0 0.0 1.0 0.00 0.00 0.00 49 1013.1
20260902004045 89 0 0.0 1.0 0.00 0.00 0.00 48 1013.1
20260902003544 90 0 0.0 1.0 0.00 0.00 0.00 47 1013.0
20260902003108 90 0 0.0 1.0 0.00 0.00 0.00 46 1013.1
20260902002544 91 217 0.0 2.0 0.00 0.00 0.00 46 1013.2
20260902002045 91 0 0.0 2.0 0.00 0.00 0.00 46 1013.1
20260902001601 92 0 0.0 2.0 0.00 0.00 0.00 44 1013.2
20260902001045 92 0 0.0 2.0 0.00 0.00 0.00 44 1013.3
20260902000544 93 0 0.0 6.0 0.00 0.00 0.00 43 1013.4
20260902000105 94 218 1.0 6.0 0.00 0.00 0.00 42 1013.3
20260901235545 94 214 1.0 4.0 0.00 0.00 0.00 41 1013.4
20260901235046 94 204 1.0 5.0 0.00 0.00 0.00 40 1013.4
20260901234605 95 214 0.0 5.0 0.00 0.00 0.00 39 1013.3
20260901234040 95 105 0.0 5.0 0.00 0.00 0.00 39 1013.3
20260901233542 95 243 0.0 8.0 0.00 0.00 0.00 38 1013.3
20260901233103 96 180 1.0 8.0 0.00 0.00 0.00 37 1013.4
20260901232544 96 209 3.0 8.0 0.00 0.00 0.00 37 1013.4
20260901232044 96 217 0.0 8.0 0.00 0.00 0.00 38 1013.3
20260901231615 96 153 2.0 11.0 0.00 0.00 0.00 37 1013.4
20260901231043 97 226 1.0 11.0 0.00 0.00 0.00 36 1013.4
20260901230544 97 261 4.0 11.0 0.00 0.00 0.00 35 1013.4
20260901230114 97 0 2.0 11.0 0.00 0.00 0.00 35 1013.3
20260901225546 97 228 3.0 11.0 0.00 0.00 0.00 34 1013.4
20260901225043 98 183 4.0 12.0 0.00 0.00 0.00 33 1013.4
20260901224605 98 201 2.0 12.0 0.00 0.00 0.00 34 1013.4
20260901224044 98 226 5.0 12.0 0.00 0.00 0.00 33 1013.4
20260901223546 98 200 5.0 11.0 0.00 0.00 0.00 34 1013.5
20260901223103 98 234 3.0 8.0 0.00 0.00 0.00 34 1013.4
20260901222544 98 230 2.0 8.0 0.00 0.00 0.00 34 1013.3
20260901222044 98 204 3.0 12.0 0.00 0.00 0.00 33 1013.4
20260901221626 98 224 4.0 12.0 0.00 0.00 0.00 33 1013.4
20260901221044 99 234 4.0 12.0 0.00 0.00 0.00 33 1013.4
20260901220546 99 207 4.0 12.0 0.00 0.00 0.00 32 1013.4
20260901220121 99 204 7.0 11.0 0.00 0.00 0.00 32 1013.4
20260901215544 99 217 3.0 11.0 0.00 0.00 0.00 32 1013.4
20260901215044 99 271 2.0 11.0 0.00 0.00 0.00 32 1013.4
20260901214604 99 232 5.0 10.0 0.00 0.00 0.00 33 1013.5
20260901214044 99 198 3.0 15.0 0.00 0.00 0.00 32 1013.5
20260901213544 100 221 5.0 15.0 0.00 0.00 0.00 32 1013.4
20260901213110 99 169 5.0 12.0 0.00 0.00 0.00 32 1013.5
20260901212544 100 238 3.0 12.0 0.00 0.00 0.00 33 1013.6
20260901212045 100 182 4.0 12.0 0.00 0.00 0.00 32 1013.5
20260901211602 100 211 5.0 14.0 0.00 0.00 0.00 31 1013.6
20260901211045 100 148 3.0 14.0 0.00 0.00 0.00 32 1013.6
20260901210544 100 221 6.0 15.0 0.00 0.00 0.00 30 1013.7
20260901210116 100 276 5.0 15.0 0.00 0.00 0.00 31 1013.8
20260901205544 100 215 4.0 10.0 0.00 0.00 0.00 32 1013.8
20260901205044 100 282 3.0 14.0 0.00 0.00 0.00 32 1013.8